Time,TemperatureF,DewpointF,PressureIn,WindDirection,WindDirectionDegrees,WindSpeedMPH,WindSpeedGustMPH,Humidity,HourlyPrecipIn,Conditions,Clouds,dailyrainin,SoftwareType,DateUTC
2013-06-22 00:01:00,62.0,59.3,30.25,East,90,0.0,0.0,91,0.00,,---,0.00,VWS V14.01,2013-06-22 04:01:00,
2013-06-22 00:02:00,62.0,59.3,30.24,East,90,0.0,0.0,91,0.00,,---,0.00,VWS V14.01,2013-06-22 04:02:00,
2013-06-22 00:04:00,61.9,58.9,30.25,East,90,0.0,0.0,90,0.00,,---,0.00,VWS V14.01,2013-06-22 04:04:00,
2013-06-22 00:07:00,61.9,59.2,30.25,East,90,0.0,0.0,91,0.00,,---,0.00,VWS V14.01,2013-06-22 04:07:00,
2013-06-22 00:12:00,61.9,59.2,30.25,East,90,0.0,0.0,91,0.00,,---,0.00,VWS V14.01,2013-06-22 04:12:00,
2013-06-22 00:17:00,61.8,59.2,30.25,East,90,0.0,0.0,91,0.00,,---,0.00,VWS V14.01,2013-06-22 04:17:00,
2013-06-22 00:22:00,61.7,59.0,30.25,East,90,0.0,0.0,91,0.00,,---,0.00,VWS V14.01,2013-06-22 04:22:00,
2013-06-22 00:27:00,61.6,59.0,30.25,East,90,0.0,0.0,91,0.00,,---,0.00,VWS V14.01,2013-06-22 04:27:00,
2013-06-22 00:32:00,61.4,58.8,30.25,East,90,0.0,0.0,91,0.00,,---,0.00,VWS V14.01,2013-06-22 04:32:00,
2013-06-22 00:37:00,61.4,58.8,30.25,East,90,0.0,0.0,91,0.00,,---,0.00,VWS V14.01,2013-06-22 04:37:00,
2013-06-22 00:42:00,61.3,58.7,30.24,East,90,0.0,0.0,91,0.00,,---,0.00,VWS V14.01,2013-06-22 04:42:00,
2013-06-22 00:47:00,61.2,58.9,30.24,East,90,0.0,0.0,92,0.00,,---,0.00,VWS V14.01,2013-06-22 04:47:00,
2013-06-22 00:53:00,61.1,58.8,30.24,East,90,0.0,0.0,92,0.00,,---,0.00,VWS V14.01,2013-06-22 04:53:00,
2013-06-22 00:58:00,61.1,58.8,30.24,East,90,0.0,0.0,92,0.00,,---,0.00,VWS V14.01,2013-06-22 04:58:00,
2013-06-22 01:03:00,61.0,58.7,30.24,East,90,0.0,0.0,92,0.00,,---,0.00,VWS V14.01,2013-06-22 05:03:00,
2013-06-22 01:08:00,60.9,58.6,30.24,East,90,0.0,0.0,92,0.00,,---,0.00,VWS V14.01,2013-06-22 05:08:00,
2013-06-22 01:13:00,60.8,58.5,30.24,East,90,0.0,0.0,92,0.00,,---,0.00,VWS V14.01,2013-06-22 05:13:00,
2013-06-22 01:18:00,60.7,58.4,30.24,East,90,0.0,0.0,92,0.00,,---,0.00,VWS V14.01,2013-06-22 05:18:00,
2013-06-22 01:23:00,60.6,58.6,30.24,East,90,0.0,0.0,93,0.00,,---,0.00,VWS V14.01,2013-06-22 05:23:00,
2013-06-22 01:28:00,60.5,58.5,30.24,East,90,0.0,0.0,93,0.00,,---,0.00,VWS V14.01,2013-06-22 05:28:00,
2013-06-22 01:33:00,60.5,58.5,30.24,East,90,0.0,0.0,93,0.00,,---,0.00,VWS V14.01,2013-06-22 05:33:00,
2013-06-22 01:38:00,60.4,58.4,30.24,East,90,0.0,0.0,93,0.00,,---,0.00,VWS V14.01,2013-06-22 05:38:00,
2013-06-22 01:43:00,60.3,58.3,30.23,East,90,0.0,0.0,93,0.00,,---,0.00,VWS V14.01,2013-06-22 05:43:00,
2013-06-22 01:48:00,60.2,58.2,30.23,East,90,0.0,0.0,93,0.00,,---,0.00,VWS V14.01,2013-06-22 05:48:00,
2013-06-22 01:53:00,60.1,58.1,30.23,East,90,0.0,0.0,93,0.00,,---,0.00,VWS V14.01,2013-06-22 05:53:00,
2013-06-22 01:58:00,60.1,58.1,30.23,East,90,0.0,0.0,93,0.00,,---,0.00,VWS V14.01,2013-06-22 05:58:00,
2013-06-22 02:03:00,60.1,58.1,30.24,East,90,0.0,0.0,93,0.00,,---,0.00,VWS V14.01,2013-06-22 06:03:00,
2013-06-22 02:08:00,60.1,58.4,30.23,East,90,0.0,0.0,94,0.00,,---,0.00,VWS V14.01,2013-06-22 06:08:00,
2013-06-22 02:13:00,60.1,58.1,30.23,East,90,0.0,0.0,93,0.00,,---,0.00,VWS V14.01,2013-06-22 06:13:00,
2013-06-22 02:18:00,60.0,58.3,30.23,East,90,0.0,0.0,94,0.00,,---,0.00,VWS V14.01,2013-06-22 06:18:00,
2013-06-22 02:24:00,59.9,58.2,30.23,East,90,0.0,0.0,94,0.00,,---,0.00,VWS V14.01,2013-06-22 06:24:00,
2013-06-22 02:29:00,59.9,58.2,30.23,East,90,0.0,0.0,94,0.00,,---,0.00,VWS V14.01,2013-06-22 06:29:00,
2013-06-22 02:34:00,59.9,58.2,30.23,East,90,0.0,0.0,94,0.00,,---,0.00,VWS V14.01,2013-06-22 06:34:00,
2013-06-22 02:39:00,59.9,58.2,30.23,East,90,0.0,0.0,94,0.00,,---,0.00,VWS V14.01,2013-06-22 06:39:00,
2013-06-22 02:44:00,59.9,58.2,30.22,East,90,0.0,0.0,94,0.00,,---,0.00,VWS V14.01,2013-06-22 06:44:00,
2013-06-22 02:49:00,59.8,58.1,30.22,East,90,0.0,0.0,94,0.00,,---,0.00,VWS V14.01,2013-06-22 06:49:00,
2013-06-22 02:54:00,59.8,58.1,30.22,East,90,0.0,0.0,94,0.00,,---,0.00,VWS V14.01,2013-06-22 06:54:00,
2013-06-22 02:59:00,59.8,58.1,30.22,East,90,0.0,0.0,94,0.00,,---,0.00,VWS V14.01,2013-06-22 06:59:00,
2013-06-22 03:04:00,59.9,58.2,30.22,East,90,0.0,0.0,94,0.00,,---,0.00,VWS V14.01,2013-06-22 07:04:00,
2013-06-22 03:09:00,60.4,59.0,30.22,East,90,0.0,0.0,95,0.00,,---,0.00,VWS V14.01,2013-06-22 07:09:00,
2013-06-22 03:14:00,60.7,59.3,30.22,East,90,0.0,0.0,95,0.00,,---,0.00,VWS V14.01,2013-06-22 07:14:00,
2013-06-22 03:19:00,61.0,59.6,30.22,East,89,0.0,0.0,95,0.00,,---,0.00,VWS V14.01,2013-06-22 07:19:00,
2013-06-22 03:24:00,61.2,59.5,30.22,East,89,0.0,0.0,94,0.00,,---,0.00,VWS V14.01,2013-06-22 07:24:00,
2013-06-22 03:29:00,61.3,59.6,30.22,East,89,0.0,0.0,94,0.00,,---,0.00,VWS V14.01,2013-06-22 07:29:00,
2013-06-22 03:34:00,61.4,59.7,30.22,East,89,0.0,0.0,94,0.00,,---,0.00,VWS V14.01,2013-06-22 07:34:00,
2013-06-22 03:39:00,61.5,59.5,30.22,East,89,0.0,0.0,93,0.00,,---,0.00,VWS V14.01,2013-06-22 07:39:00,
2013-06-22 03:44:00,61.6,59.6,30.22,East,89,0.0,0.0,93,0.00,,---,0.00,VWS V14.01,2013-06-22 07:44:00,
2013-06-22 03:50:00,61.6,59.6,30.22,East,89,0.0,0.0,93,0.00,,---,0.00,VWS V14.01,2013-06-22 07:50:00,
2013-06-22 03:55:00,61.6,59.6,30.22,East,89,0.0,0.0,93,0.00,,---,0.00,VWS V14.01,2013-06-22 07:55:00,
2013-06-22 04:00:00,61.6,59.6,30.22,East,89,0.0,0.0,93,0.00,,---,0.00,VWS V14.01,2013-06-22 08:00:00,
2013-06-22 04:05:00,61.6,59.6,30.22,East,89,0.0,0.0,93,0.00,,---,0.00,VWS V14.01,2013-06-22 08:05:00,
2013-06-22 04:10:00,61.6,59.6,30.22,East,89,0.0,0.0,93,0.00,,---,0.00,VWS V14.01,2013-06-22 08:10:00,
2013-06-22 04:15:00,61.5,59.5,30.22,East,89,0.0,0.0,93,0.00,,---,0.00,VWS V14.01,2013-06-22 08:15:00,
2013-06-22 04:20:00,61.6,59.6,30.22,NNE,29,0.0,2.0,93,0.00,,---,0.00,VWS V14.01,2013-06-22 08:20:00,
2013-06-22 04:25:00,61.7,59.7,30.22,NNE,29,0.0,2.0,93,0.00,,---,0.00,VWS V14.01,2013-06-22 08:25:00,
2013-06-22 04:30:00,61.8,59.8,30.22,NNE,27,1.0,2.0,93,0.00,,---,0.00,VWS V14.01,2013-06-22 08:30:00,
2013-06-22 04:35:00,62.0,59.7,30.22,NNE,24,0.0,2.0,92,0.00,,---,0.00,VWS V14.01,2013-06-22 08:35:00,
2013-06-22 04:40:00,62.1,59.8,30.22,NNE,24,0.0,2.0,92,0.00,,---,0.00,VWS V14.01,2013-06-22 08:40:00,
2013-06-22 04:46:00,62.3,60.0,30.22,NNE,24,0.0,0.0,92,0.00,,---,0.00,VWS V14.01,2013-06-22 08:46:00,
2013-06-22 04:51:00,62.5,60.2,30.22,NNE,30,0.0,0.0,92,0.00,,---,0.00,VWS V14.01,2013-06-22 08:51:00,
2013-06-22 04:56:00,62.7,60.3,30.22,NNE,17,0.0,2.0,92,0.00,,---,0.00,VWS V14.01,2013-06-22 08:56:00,
2013-06-22 05:01:00,63.0,60.6,30.22,NNE,19,0.0,1.0,92,0.00,,---,0.00,VWS V14.01,2013-06-22 09:01:00,
2013-06-22 05:06:00,63.4,61.0,30.22,NNE,19,0.0,1.0,92,0.00,,---,0.00,VWS V14.01,2013-06-22 09:06:00,
2013-06-22 05:11:00,63.6,61.2,30.23,NNE,20,0.0,1.0,92,0.00,,---,0.00,VWS V14.01,2013-06-22 09:11:00,
2013-06-22 05:16:00,64.0,61.3,30.23,NNE,19,0.0,2.0,91,0.00,,---,0.00,VWS V14.01,2013-06-22 09:16:00,
2013-06-22 05:21:00,64.3,61.6,30.23,NNE,27,0.0,3.0,91,0.00,,---,0.00,VWS V14.01,2013-06-22 09:21:00,
2013-06-22 05:26:00,64.6,61.9,30.23,NNE,28,0.0,3.0,91,0.00,,---,0.00,VWS V14.01,2013-06-22 09:26:00,
2013-06-22 05:32:00,65.0,62.3,30.23,NE,42,0.0,2.0,91,0.00,,---,0.00,VWS V14.01,2013-06-22 09:32:00,
2013-06-22 05:37:00,65.3,62.3,30.23,North,9,1.0,3.0,90,0.00,,---,0.00,VWS V14.01,2013-06-22 09:37:00,
2013-06-22 05:42:00,65.5,62.5,30.24,NNE,28,0.0,3.0,90,0.00,,---,0.00,VWS V14.01,2013-06-22 09:42:00,
2013-06-22 05:47:00,65.7,62.7,30.24,NNW,347,3.0,3.0,90,0.00,,---,0.00,VWS V14.01,2013-06-22 09:47:00,
2013-06-22 05:52:00,65.8,62.8,30.24,NNW,344,0.0,3.0,90,0.00,,---,0.00,VWS V14.01,2013-06-22 09:52:00,
2013-06-22 05:57:00,65.9,62.9,30.24,NW,316,2.0,4.0,90,0.00,,---,0.00,VWS V14.01,2013-06-22 09:57:00,
2013-06-22 06:02:00,66.1,63.1,30.24,NNW,337,0.0,2.0,90,0.00,,---,0.00,VWS V14.01,2013-06-22 10:02:00,
2013-06-22 06:07:00,66.2,63.2,30.24,NNW,333,2.0,4.0,90,0.00,,---,0.00,VWS V14.01,2013-06-22 10:07:00,
2013-06-22 06:13:00,66.3,63.3,30.24,North,355,2.0,4.0,90,0.00,,---,0.00,VWS V14.01,2013-06-22 10:13:00,
2013-06-22 06:18:00,66.3,63.3,30.24,NNE,22,0.0,2.0,90,0.00,,---,0.00,VWS V14.01,2013-06-22 10:18:00,
2013-06-22 06:23:00,66.3,63.3,30.24,NNE,12,0.0,3.0,90,0.00,,---,0.00,VWS V14.01,2013-06-22 10:23:00,
2013-06-22 06:28:00,66.4,63.4,30.24,NW,310,2.0,3.0,90,0.00,,---,0.00,VWS V14.01,2013-06-22 10:28:00,
2013-06-22 06:33:00,66.4,63.4,30.24,North,5,0.0,3.0,90,0.00,,---,0.00,VWS V14.01,2013-06-22 10:33:00,
2013-06-22 06:38:00,66.4,63.4,30.24,NE,37,3.0,4.0,90,0.00,,---,0.00,VWS V14.01,2013-06-22 10:38:00,
2013-06-22 06:43:00,66.4,63.4,30.25,NNE,33,2.0,4.0,90,0.00,,---,0.00,VWS V14.01,2013-06-22 10:43:00,
2013-06-22 06:48:00,66.4,63.7,30.24,North,5,0.0,2.0,91,0.00,,---,0.00,VWS V14.01,2013-06-22 10:48:00,
2013-06-22 06:54:00,66.4,63.7,30.24,NE,38,0.0,4.0,91,0.00,,---,0.00,VWS V14.01,2013-06-22 10:54:00,
2013-06-22 06:59:00,66.5,63.8,30.24,North,355,0.0,4.0,91,0.00,,---,0.00,VWS V14.01,2013-06-22 10:59:00,
2013-06-22 07:04:00,66.6,63.9,30.24,ENE,70,1.0,3.0,91,0.00,,---,0.00,VWS V14.01,2013-06-22 11:04:00,
2013-06-22 07:09:00,66.8,64.1,30.24,NNE,17,0.0,3.0,91,0.00,,---,0.00,VWS V14.01,2013-06-22 11:09:00,
2013-06-22 07:14:00,67.0,64.3,30.24,NNE,23,2.0,3.0,91,0.00,,---,0.00,VWS V14.01,2013-06-22 11:14:00,
2013-06-22 07:19:00,67.3,64.9,30.25,NNE,19,0.0,3.0,92,0.00,,---,0.00,VWS V14.01,2013-06-22 11:19:00,
2013-06-22 07:24:00,67.7,65.3,30.25,NNW,333,0.0,4.0,92,0.00,,---,0.00,VWS V14.01,2013-06-22 11:24:00,
2013-06-22 07:29:00,68.0,65.3,30.25,NE,51,0.0,4.0,91,0.00,,---,0.00,VWS V14.01,2013-06-22 11:29:00,
2013-06-22 07:35:00,68.1,65.1,30.25,NNW,331,0.0,3.0,90,0.00,,---,0.00,VWS V14.01,2013-06-22 11:35:00,
2013-06-22 07:40:00,68.2,65.2,30.25,NE,41,0.0,5.0,90,0.00,,---,0.00,VWS V14.01,2013-06-22 11:40:00,
2013-06-22 07:45:00,68.3,65.3,30.25,North,9,1.0,5.0,90,0.00,,---,0.00,VWS V14.01,2013-06-22 11:45:00,
2013-06-22 07:50:00,68.5,65.5,30.25,NNW,348,0.0,3.0,90,0.00,,---,0.00,VWS V14.01,2013-06-22 11:50:00,
2013-06-22 07:55:00,68.7,65.7,30.25,North,9,2.0,4.0,90,0.00,,---,0.00,VWS V14.01,2013-06-22 11:55:00,
2013-06-22 08:00:00,69.0,65.9,30.25,NW,305,1.0,1.0,90,0.00,,---,0.00,VWS V14.01,2013-06-22 12:00:00,
2013-06-22 08:05:00,69.3,65.9,30.25,NNE,19,0.0,2.0,89,0.00,,---,0.00,VWS V14.01,2013-06-22 12:05:00,
2013-06-22 08:10:00,69.8,66.4,30.26,NE,41,0.0,3.0,89,0.00,,---,0.00,VWS V14.01,2013-06-22 12:10:00,
2013-06-22 08:16:00,70.0,66.3,30.25,NNW,343,0.0,0.0,88,0.00,,---,0.00,VWS V14.01,2013-06-22 12:16:00,
2013-06-22 08:21:00,70.1,66.4,30.25,NNE,32,1.0,2.0,88,0.00,,---,0.00,VWS V14.01,2013-06-22 12:21:00,
2013-06-22 08:26:00,70.8,67.1,30.25,NW,319,2.0,3.0,88,0.00,,---,0.00,VWS V14.01,2013-06-22 12:26:00,
2013-06-22 08:31:00,71.3,67.2,30.25,East,85,0.0,3.0,87,0.00,,---,0.00,VWS V14.01,2013-06-22 12:31:00,
2013-06-22 08:36:00,72.0,67.6,30.25,ENE,67,2.0,5.0,86,0.00,,---,0.00,VWS V14.01,2013-06-22 12:36:00,
2013-06-22 08:41:00,72.1,67.7,30.25,NE,39,2.0,5.0,86,0.00,,---,0.00,VWS V14.01,2013-06-22 12:41:00,
2013-06-22 08:46:00,72.7,68.3,30.25,NNW,348,0.0,7.0,86,0.00,,---,0.00,VWS V14.01,2013-06-22 12:46:00,
2013-06-22 08:51:00,73.4,69.0,30.25,NNE,13,2.0,7.0,86,0.00,,---,0.00,VWS V14.01,2013-06-22 12:51:00,
2013-06-22 08:57:00,73.8,68.7,30.25,ESE,105,0.0,7.0,84,0.00,,---,0.00,VWS V14.01,2013-06-22 12:57:00,
2013-06-22 09:02:00,73.8,68.3,30.25,ENE,78,0.0,6.0,83,0.00,,---,0.00,VWS V14.01,2013-06-22 13:02:00,
2013-06-22 09:07:00,73.9,68.4,30.25,NE,41,0.0,6.0,83,0.00,,---,0.00,VWS V14.01,2013-06-22 13:07:00,
2013-06-22 09:12:00,74.4,69.3,30.25,East,93,2.0,6.0,84,0.00,,---,0.00,VWS V14.01,2013-06-22 13:12:00,
2013-06-22 09:17:00,75.1,69.2,30.24,ESE,113,2.0,5.0,82,0.00,,---,0.00,VWS V14.01,2013-06-22 13:17:00,
2013-06-22 09:22:00,75.2,69.7,30.25,SSW,194,0.0,5.0,83,0.00,,---,0.00,VWS V14.01,2013-06-22 13:22:00,
2013-06-22 09:27:00,75.6,69.4,30.24,ESE,113,3.0,5.0,81,0.00,,---,0.00,VWS V14.01,2013-06-22 13:27:00,
2013-06-22 09:33:00,74.9,68.7,30.24,East,100,1.0,8.0,81,0.00,,---,0.00,VWS V14.01,2013-06-22 13:33:00,
2013-06-22 09:38:00,74.7,69.2,30.24,ENE,59,0.0,8.0,83,0.00,,---,0.00,VWS V14.01,2013-06-22 13:38:00,
2013-06-22 09:43:00,75.4,69.5,30.24,East,84,1.0,8.0,82,0.00,,---,0.00,VWS V14.01,2013-06-22 13:43:00,
2013-06-22 09:48:00,75.2,69.0,30.24,NNW,348,3.0,8.0,81,0.00,,---,0.00,VWS V14.01,2013-06-22 13:48:00,
2013-06-22 09:53:00,74.9,69.0,30.24,NE,35,3.0,8.0,82,0.00,,---,0.00,VWS V14.01,2013-06-22 13:53:00,
2013-06-22 09:58:00,75.3,69.1,30.23,NNW,344,2.0,8.0,81,0.00,,---,0.00,VWS V14.01,2013-06-22 13:58:00,
2013-06-22 10:03:00,75.3,69.1,30.23,ESE,120,3.0,7.0,81,0.00,,---,0.00,VWS V14.01,2013-06-22 14:03:00,
2013-06-22 10:09:00,75.6,69.7,30.23,NE,47,2.0,7.0,82,0.00,,---,0.00,VWS V14.01,2013-06-22 14:09:00,
2013-06-22 10:14:00,75.6,69.0,30.23,ESE,119,3.0,7.0,80,0.00,,---,0.00,VWS V14.01,2013-06-22 14:14:00,
2013-06-22 10:19:00,75.7,69.8,30.23,SE,128,3.0,5.0,82,0.00,,---,0.00,VWS V14.01,2013-06-22 14:19:00,
2013-06-22 10:24:00,75.1,68.5,30.23,ENE,59,2.0,6.0,80,0.00,,---,0.00,VWS V14.01,2013-06-22 14:24:00,
2013-06-22 10:29:00,75.3,69.4,30.23,NW,314,5.0,6.0,82,0.00,,---,0.00,VWS V14.01,2013-06-22 14:29:00,
2013-06-22 10:34:00,75.3,69.4,30.24,NW,322,3.0,8.0,82,0.00,,---,0.00,VWS V14.01,2013-06-22 14:34:00,
2013-06-22 10:39:00,75.0,68.8,30.24,NNW,336,1.0,8.0,81,0.00,,---,0.00,VWS V14.01,2013-06-22 14:39:00,
2013-06-22 10:44:00,74.3,68.1,30.24,West,259,0.0,8.0,81,0.00,,---,0.00,VWS V14.01,2013-06-22 14:44:00,
2013-06-22 10:50:00,74.0,68.2,30.25,WNW,294,2.0,8.0,82,0.00,,---,0.00,VWS V14.01,2013-06-22 14:50:00,
2013-06-22 10:55:00,73.5,67.7,30.25,NNE,28,0.0,8.0,82,0.00,,---,0.00,VWS V14.01,2013-06-22 14:55:00,
2013-06-22 11:00:00,73.2,67.7,30.26,North,9,2.0,8.0,83,0.00,,---,0.00,VWS V14.01,2013-06-22 15:00:00,
2013-06-22 11:05:00,73.4,67.6,30.26,NW,313,3.0,8.0,82,0.00,,---,0.00,VWS V14.01,2013-06-22 15:05:00,
2013-06-22 11:10:00,73.3,67.5,30.26,North,349,2.0,8.0,82,0.00,,---,0.00,VWS V14.01,2013-06-22 15:10:00,
2013-06-22 11:15:00,73.1,67.3,30.26,North,5,1.0,5.0,82,0.00,,---,0.00,VWS V14.01,2013-06-22 15:15:00,
2013-06-22 11:21:00,73.1,67.3,30.26,NNE,17,2.0,5.0,82,0.00,,---,0.00,VWS V14.01,2013-06-22 15:21:00,
2013-06-22 11:26:00,73.1,67.6,30.27,North,350,2.0,6.0,83,0.00,,---,0.00,VWS V14.01,2013-06-22 15:26:00,
2013-06-22 11:31:00,73.5,68.0,30.27,East,99,0.0,1.0,83,0.00,,---,0.00,VWS V14.01,2013-06-22 15:31:00,
2013-06-22 11:36:00,73.7,67.9,30.27,East,84,1.0,5.0,82,0.00,,---,0.00,VWS V14.01,2013-06-22 15:36:00,
2013-06-22 11:41:00,73.7,67.9,30.27,NW,309,3.0,6.0,82,0.00,,---,0.00,VWS V14.01,2013-06-22 15:41:00,
2013-06-22 11:46:00,73.9,67.7,30.27,North,360,1.0,6.0,81,0.00,,---,0.00,VWS V14.01,2013-06-22 15:46:00,
2013-06-22 11:51:00,73.9,68.1,30.27,ESE,109,0.0,6.0,82,0.00,,---,0.00,VWS V14.01,2013-06-22 15:51:00,
2013-06-22 11:56:00,74.2,67.6,30.27,NNE,22,3.0,6.0,80,0.00,,---,0.00,VWS V14.01,2013-06-22 15:56:00,
2013-06-22 12:02:00,74.7,68.5,30.26,NNW,340,4.0,10.0,81,0.00,,---,0.00,VWS V14.01,2013-06-22 16:02:00,
2013-06-22 12:07:00,75.3,69.1,30.26,East,81,0.0,10.0,81,0.00,,---,0.00,VWS V14.01,2013-06-22 16:07:00,
2013-06-22 12:12:00,76.0,69.4,30.26,North,11,4.0,10.0,80,0.00,,---,0.00,VWS V14.01,2013-06-22 16:12:00,
2013-06-22 12:17:00,75.8,68.5,30.25,North,360,3.0,5.0,78,0.00,,---,0.00,VWS V14.01,2013-06-22 16:17:00,
2013-06-22 12:22:00,76.0,69.0,30.25,NNW,334,2.0,7.0,79,0.00,,---,0.00,VWS V14.01,2013-06-22 16:22:00,
2013-06-22 12:27:00,76.2,68.8,30.26,NNW,344,2.0,7.0,78,0.00,,---,0.00,VWS V14.01,2013-06-22 16:27:00,
2013-06-22 12:33:00,76.8,68.3,30.26,SSE,151,0.0,5.0,75,0.00,,---,0.00,VWS V14.01,2013-06-22 16:33:00,
2013-06-22 12:38:00,77.9,69.7,30.26,NE,38,0.0,9.0,76,0.00,,---,0.00,VWS V14.01,2013-06-22 16:38:00,
2013-06-22 12:43:00,77.5,70.5,30.25,North,351,0.0,9.0,79,0.00,,---,0.00,VWS V14.01,2013-06-22 16:43:00,
2013-06-22 12:48:00,78.2,71.2,30.25,NNW,339,1.0,4.0,79,0.00,,---,0.00,VWS V14.01,2013-06-22 16:48:00,
2013-06-22 12:53:00,77.8,69.6,30.25,NW,314,5.0,6.0,76,0.00,,---,0.00,VWS V14.01,2013-06-22 16:53:00,
2013-06-22 12:58:00,78.2,69.6,30.25,NNE,13,3.0,11.0,75,0.00,,---,0.00,VWS V14.01,2013-06-22 16:58:00,
2013-06-22 13:03:00,77.5,69.3,30.25,East,83,0.0,5.0,76,0.00,,---,0.00,VWS V14.01,2013-06-22 17:03:00,
2013-06-22 13:09:00,77.8,69.6,30.25,NNW,336,5.0,7.0,76,0.00,,---,0.00,VWS V14.01,2013-06-22 17:09:00,
2013-06-22 13:14:00,78.3,70.9,30.25,North,350,4.0,7.0,78,0.00,,---,0.00,VWS V14.01,2013-06-22 17:14:00,
2013-06-22 13:19:00,78.0,68.7,30.25,NE,55,1.0,3.0,73,0.00,,---,0.00,VWS V14.01,2013-06-22 17:19:00,
2013-06-22 13:24:00,77.8,69.6,30.25,SE,134,3.0,3.0,76,0.00,,---,0.00,VWS V14.01,2013-06-22 17:24:00,
2013-06-22 13:29:00,77.6,69.8,30.25,ENE,67,0.0,4.0,77,0.00,,---,0.00,VWS V14.01,2013-06-22 17:29:00,
2013-06-22 13:34:00,79.6,71.0,30.25,ENE,68,1.0,4.0,75,0.00,,---,0.00,VWS V14.01,2013-06-22 17:34:00,
2013-06-22 13:39:00,78.5,69.5,30.24,SSE,163,1.0,4.0,74,0.00,,---,0.00,VWS V14.01,2013-06-22 17:39:00,
2013-06-22 13:45:00,79.7,71.1,30.24,NE,34,1.0,4.0,75,0.00,,---,0.00,VWS V14.01,2013-06-22 17:45:00,
2013-06-22 13:50:00,81.2,73.3,30.23,NNE,14,4.0,6.0,77,0.00,,---,0.00,VWS V14.01,2013-06-22 17:50:00,
2013-06-22 13:55:00,80.1,70.3,30.23,NE,52,0.0,8.0,72,0.00,,---,0.00,VWS V14.01,2013-06-22 17:55:00,
2013-06-22 14:00:00,80.3,70.9,30.23,ESE,112,1.0,8.0,73,0.00,,---,0.00,VWS V14.01,2013-06-22 18:00:00,
2013-06-22 14:05:00,80.0,69.8,30.23,ESE,121,0.0,5.0,71,0.00,,---,0.00,VWS V14.01,2013-06-22 18:05:00,
2013-06-22 14:11:00,80.3,70.9,30.23,NW,325,3.0,6.0,73,0.00,,---,0.00,VWS V14.01,2013-06-22 18:11:00,
2013-06-22 14:16:00,80.9,71.8,30.23,NNE,13,1.0,2.0,74,0.00,,---,0.00,VWS V14.01,2013-06-22 18:16:00,
2013-06-22 14:21:00,81.7,71.8,30.23,NE,42,1.0,4.0,72,0.00,,---,0.00,VWS V14.01,2013-06-22 18:21:00,
2013-06-22 14:26:00,82.3,73.6,30.23,NNE,25,0.0,4.0,75,0.00,,---,0.00,VWS V14.01,2013-06-22 18:26:00,
2013-06-22 14:31:00,81.5,70.4,30.22,East,90,3.0,7.0,69,0.00,,---,0.00,VWS V14.01,2013-06-22 18:31:00,
2013-06-22 14:36:00,80.8,70.9,30.22,ESE,122,2.0,7.0,72,0.00,,---,0.00,VWS V14.01,2013-06-22 18:36:00,
2013-06-22 14:42:00,80.6,69.9,30.22,SE,140,3.0,7.0,70,0.00,,---,0.00,VWS V14.01,2013-06-22 18:42:00,
2013-06-22 14:47:00,80.2,70.4,30.21,ENE,61,0.0,2.0,72,0.00,,---,0.00,VWS V14.01,2013-06-22 18:47:00,
2013-06-22 14:52:00,80.6,70.8,30.21,NE,54,2.0,5.0,72,0.00,,---,0.00,VWS V14.01,2013-06-22 18:52:00,
2013-06-22 14:57:00,80.7,71.2,30.21,NNE,32,0.0,5.0,73,0.00,,---,0.00,VWS V14.01,2013-06-22 18:57:00,
2013-06-22 15:02:00,80.0,68.9,30.21,ENE,72,1.0,3.0,69,0.00,,---,0.00,VWS V14.01,2013-06-22 19:02:00,
2013-06-22 15:07:00,80.2,70.4,30.22,East,90,1.0,5.0,72,0.00,,---,0.00,VWS V14.01,2013-06-22 19:07:00,
2013-06-22 15:13:00,79.8,70.4,30.21,SE,141,3.0,5.0,73,0.00,,---,0.00,VWS V14.01,2013-06-22 19:13:00,
2013-06-22 15:18:00,79.6,71.0,30.21,SE,136,1.0,3.0,75,0.00,,---,0.00,VWS V14.01,2013-06-22 19:18:00,
2013-06-22 15:23:00,80.0,70.2,30.21,SSE,153,1.0,5.0,72,0.00,,---,0.00,VWS V14.01,2013-06-22 19:23:00,
2013-06-22 15:28:00,80.2,70.8,30.21,ESE,119,3.0,5.0,73,0.00,,---,0.00,VWS V14.01,2013-06-22 19:28:00,
2013-06-22 15:33:00,79.8,70.4,30.20,SSE,159,0.0,4.0,73,0.00,,---,0.00,VWS V14.01,2013-06-22 19:33:00,
2013-06-22 15:38:00,80.3,70.9,30.20,ENE,76,0.0,4.0,73,0.00,,---,0.00,VWS V14.01,2013-06-22 19:38:00,
2013-06-22 15:43:00,80.5,71.5,30.20,NE,53,1.0,5.0,74,0.00,,---,0.00,VWS V14.01,2013-06-22 19:43:00,
2013-06-22 15:48:00,80.5,71.1,30.20,SE,143,2.0,5.0,73,0.00,,---,0.00,VWS V14.01,2013-06-22 19:48:00,
2013-06-22 15:54:00,80.7,70.8,30.20,NNW,339,0.0,8.0,72,0.00,,---,0.00,VWS V14.01,2013-06-22 19:54:00,
2013-06-22 15:59:00,80.7,71.2,30.19,ENE,69,0.0,8.0,73,0.00,,---,0.00,VWS V14.01,2013-06-22 19:59:00,
2013-06-22 16:04:00,80.9,69.8,30.19,North,360,2.0,6.0,69,0.00,,---,0.00,VWS V14.01,2013-06-22 20:04:00,
2013-06-22 16:09:00,81.1,70.4,30.19,NNE,22,2.0,6.0,70,0.00,,---,0.00,VWS V14.01,2013-06-22 20:09:00,
2013-06-22 16:14:00,81.0,70.7,30.19,NE,40,1.0,6.0,71,0.00,,---,0.00,VWS V14.01,2013-06-22 20:14:00,
2013-06-22 16:19:00,80.9,70.2,30.19,NE,52,1.0,2.0,70,0.00,,---,0.00,VWS V14.01,2013-06-22 20:19:00,
2013-06-22 16:24:00,80.7,70.0,30.19,NNE,26,1.0,4.0,70,0.00,,---,0.00,VWS V14.01,2013-06-22 20:24:00,
2013-06-22 16:29:00,81.1,70.0,30.18,NE,48,0.0,4.0,69,0.00,,---,0.00,VWS V14.01,2013-06-22 20:29:00,
2013-06-22 16:35:00,81.3,70.2,30.18,ESE,117,3.0,4.0,69,0.00,,---,0.00,VWS V14.01,2013-06-22 20:35:00,
2013-06-22 16:40:00,81.8,71.1,30.18,North,355,0.0,4.0,70,0.00,,---,0.00,VWS V14.01,2013-06-22 20:40:00,
2013-06-22 16:45:00,82.0,70.0,30.18,ENE,62,1.0,4.0,67,0.00,,---,0.00,VWS V14.01,2013-06-22 20:45:00,
2013-06-22 16:50:00,81.4,70.3,30.17,SE,143,1.0,5.0,69,0.00,,---,0.00,VWS V14.01,2013-06-22 20:50:00,
2013-06-22 16:55:00,81.2,70.1,30.17,East,98,2.0,5.0,69,0.00,,---,0.00,VWS V14.01,2013-06-22 20:55:00,
2013-06-22 17:00:00,81.0,68.6,30.17,East,100,1.0,1.0,66,0.00,,---,0.00,VWS V14.01,2013-06-22 21:00:00,
2013-06-22 17:05:00,81.6,70.0,30.17,ENE,65,0.0,2.0,68,0.00,,---,0.00,VWS V14.01,2013-06-22 21:05:00,
2013-06-22 17:11:00,81.2,69.2,30.17,ESE,115,2.0,4.0,67,0.00,,---,0.00,VWS V14.01,2013-06-22 21:11:00,
2013-06-22 17:16:00,81.6,70.0,30.17,ESE,105,0.0,0.0,68,0.00,,---,0.00,VWS V14.01,2013-06-22 21:16:00,
2013-06-22 17:21:00,81.4,69.8,30.17,East,101,0.0,2.0,68,0.00,,---,0.00,VWS V14.01,2013-06-22 21:21:00,
2013-06-22 17:26:00,81.4,70.7,30.17,ENE,57,0.0,3.0,70,0.00,,---,0.00,VWS V14.01,2013-06-22 21:26:00,
2013-06-22 17:31:00,81.3,69.7,30.17,East,88,0.0,1.0,68,0.00,,---,0.00,VWS V14.01,2013-06-22 21:31:00,
2013-06-22 17:36:00,81.5,70.8,30.16,East,85,0.0,1.0,70,0.00,,---,0.00,VWS V14.01,2013-06-22 21:36:00,
2013-06-22 17:41:00,81.2,69.6,30.16,ESE,113,0.0,3.0,68,0.00,,---,0.00,VWS V14.01,2013-06-22 21:41:00,
2013-06-22 17:46:00,81.0,69.4,30.17,SE,138,0.0,1.0,68,0.00,,---,0.00,VWS V14.01,2013-06-22 21:46:00,
2013-06-22 17:52:00,80.8,69.7,30.16,SE,138,0.0,2.0,69,0.00,,---,0.00,VWS V14.01,2013-06-22 21:52:00,
2013-06-22 17:57:00,80.9,70.2,30.16,East,100,1.0,2.0,70,0.00,,---,0.00,VWS V14.01,2013-06-22 21:57:00,
2013-06-22 18:02:00,81.4,71.1,30.16,ENE,68,1.0,1.0,71,0.00,,---,0.00,VWS V14.01,2013-06-22 22:02:00,
2013-06-22 18:07:00,81.1,70.4,30.16,ESE,107,1.0,2.0,70,0.00,,---,0.00,VWS V14.01,2013-06-22 22:07:00,
2013-06-22 18:12:00,81.4,70.3,30.16,ENE,61,2.0,3.0,69,0.00,,---,0.00,VWS V14.01,2013-06-22 22:12:00,
2013-06-22 18:17:00,81.4,70.3,30.16,North,360,0.0,3.0,69,0.00,,---,0.00,VWS V14.01,2013-06-22 22:17:00,
2013-06-22 18:22:00,81.5,69.9,30.16,ESE,115,0.0,3.0,68,0.00,,---,0.00,VWS V14.01,2013-06-22 22:22:00,
2013-06-22 18:27:00,81.4,70.7,30.16,East,89,0.0,4.0,70,0.00,,---,0.00,VWS V14.01,2013-06-22 22:27:00,
2013-06-22 18:32:00,81.3,70.2,30.16,SE,134,0.0,2.0,69,0.00,,---,0.00,VWS V14.01,2013-06-22 22:32:00,
2013-06-22 18:38:00,81.1,70.4,30.16,ESE,111,0.0,2.0,70,0.00,,---,0.00,VWS V14.01,2013-06-22 22:38:00,
2013-06-22 18:43:00,80.5,70.2,30.16,ESE,105,0.0,4.0,71,0.00,,---,0.00,VWS V14.01,2013-06-22 22:43:00,
2013-06-22 18:48:00,79.7,70.3,30.16,East,84,0.0,2.0,73,0.00,,---,0.00,VWS V14.01,2013-06-22 22:48:00,
2013-06-22 18:53:00,79.2,70.6,30.16,ESE,103,0.0,2.0,75,0.00,,---,0.00,VWS V14.01,2013-06-22 22:53:00,
2013-06-22 18:58:00,78.9,70.3,30.16,ESE,107,0.0,2.0,75,0.00,,---,0.00,VWS V14.01,2013-06-22 22:58:00,
2013-06-22 19:03:00,78.6,70.0,30.16,ESE,107,0.0,0.0,75,0.00,,---,0.00,VWS V14.01,2013-06-22 23:03:00,
2013-06-22 19:08:00,78.5,70.3,30.16,ESE,107,0.0,0.0,76,0.00,,---,0.00,VWS V14.01,2013-06-22 23:08:00,
2013-06-22 19:13:00,78.4,70.6,30.16,ESE,107,0.0,0.0,77,0.00,,---,0.00,VWS V14.01,2013-06-22 23:13:00,
2013-06-22 19:18:00,78.3,70.5,30.16,ESE,107,0.0,0.0,77,0.00,,---,0.00,VWS V14.01,2013-06-22 23:18:00,
2013-06-22 19:24:00,78.1,70.3,30.16,ESE,107,0.0,0.0,77,0.00,,---,0.00,VWS V14.01,2013-06-22 23:24:00,
2013-06-22 19:29:00,78.0,69.8,30.17,ESE,107,0.0,1.0,76,0.00,,---,0.00,VWS V14.01,2013-06-22 23:29:00,
2013-06-22 19:34:00,77.9,70.1,30.17,ESE,107,0.0,0.0,77,0.00,,---,0.00,VWS V14.01,2013-06-22 23:34:00,
2013-06-22 19:39:00,78.2,70.8,30.17,ESE,107,1.0,1.0,78,0.00,,---,0.00,VWS V14.01,2013-06-22 23:39:00,
2013-06-22 19:44:00,78.6,70.8,30.17,ESE,107,0.0,1.0,77,0.00,,---,0.00,VWS V14.01,2013-06-22 23:44:00,
2013-06-22 19:49:00,79.1,70.9,30.17,ESE,107,0.0,1.0,76,0.00,,---,0.00,VWS V14.01,2013-06-22 23:49:00,
2013-06-22 19:54:00,79.1,70.5,30.17,ESE,107,0.0,1.0,75,0.00,,---,0.00,VWS V14.01,2013-06-22 23:54:00,
2013-06-22 19:59:00,78.9,70.3,30.16,ESE,107,0.0,1.0,75,0.00,,---,0.00,VWS V14.01,2013-06-22 23:59:00,
2013-06-22 20:05:00,78.6,70.4,30.16,ESE,107,0.0,0.0,76,0.00,,---,0.00,VWS V14.01,2013-06-23 00:05:00,
2013-06-22 20:10:00,78.4,70.6,30.17,ESE,107,0.0,0.0,77,0.00,,---,0.00,VWS V14.01,2013-06-23 00:10:00,
2013-06-22 20:15:00,78.1,70.3,30.16,ESE,107,0.0,0.0,77,0.00,,---,0.00,VWS V14.01,2013-06-23 00:15:00,
2013-06-22 20:20:00,77.8,70.4,30.17,ESE,107,0.0,0.0,78,0.00,,---,0.00,VWS V14.01,2013-06-23 00:20:00,
2013-06-22 20:25:00,77.4,70.4,30.17,ESE,107,0.0,0.0,79,0.00,,---,0.00,VWS V14.01,2013-06-23 00:25:00,
2013-06-22 20:30:00,76.8,70.2,30.17,ESE,107,0.0,0.0,80,0.00,,---,0.00,VWS V14.01,2013-06-23 00:30:00,
2013-06-22 20:35:00,76.4,70.1,30.17,ESE,107,0.0,0.0,81,0.00,,---,0.00,VWS V14.01,2013-06-23 00:35:00,
2013-06-22 20:40:00,76.0,69.8,30.17,ESE,107,0.0,0.0,81,0.00,,---,0.00,VWS V14.01,2013-06-23 00:40:00,
2013-06-22 20:46:00,75.4,69.5,30.16,ESE,107,0.0,0.0,82,0.00,,---,0.00,VWS V14.01,2013-06-23 00:46:00,
2013-06-22 20:51:00,74.8,69.3,30.16,ESE,107,0.0,0.0,83,0.00,,---,0.00,VWS V14.01,2013-06-23 00:51:00,
2013-06-22 20:56:00,74.4,69.3,30.17,ESE,107,0.0,0.0,84,0.00,,---,0.00,VWS V14.01,2013-06-23 00:56:00,
2013-06-22 21:01:00,74.1,69.3,30.17,ESE,107,0.0,0.0,85,0.00,,---,0.00,VWS V14.01,2013-06-23 01:01:00,
2013-06-22 21:06:00,74.0,69.2,30.16,ESE,107,0.0,0.0,85,0.00,,---,0.00,VWS V14.01,2013-06-23 01:06:00,
2013-06-22 21:11:00,73.7,68.9,30.17,ESE,107,0.0,0.0,85,0.00,,---,0.00,VWS V14.01,2013-06-23 01:11:00,
2013-06-22 21:17:00,73.3,68.9,30.17,ESE,107,0.0,0.0,86,0.00,,---,0.00,VWS V14.01,2013-06-23 01:17:00,
2013-06-22 21:22:00,73.0,68.9,30.17,ESE,107,0.0,0.0,87,0.00,,---,0.00,VWS V14.01,2013-06-23 01:22:00,
2013-06-22 21:27:00,72.9,68.8,30.17,ESE,107,0.0,0.0,87,0.00,,---,0.00,VWS V14.01,2013-06-23 01:27:00,
2013-06-22 21:32:00,72.7,68.9,30.17,ESE,107,0.0,0.0,88,0.00,,---,0.00,VWS V14.01,2013-06-23 01:32:00,
2013-06-22 21:37:00,72.6,68.8,30.17,ESE,107,0.0,0.0,88,0.00,,---,0.00,VWS V14.01,2013-06-23 01:37:00,
2013-06-22 21:42:00,72.3,68.6,30.17,ESE,107,0.0,0.0,88,0.00,,---,0.00,VWS V14.01,2013-06-23 01:42:00,
2013-06-22 21:47:00,72.1,68.7,30.18,ESE,107,0.0,0.0,89,0.00,,---,0.00,VWS V14.01,2013-06-23 01:47:00,
2013-06-22 21:52:00,72.0,68.6,30.18,ESE,107,0.0,0.0,89,0.00,,---,0.00,VWS V14.01,2013-06-23 01:52:00,
2013-06-22 21:57:00,71.9,68.5,30.18,ESE,107,0.0,0.0,89,0.00,,---,0.00,VWS V14.01,2013-06-23 01:57:00,
2013-06-22 22:03:00,71.9,68.8,30.19,ESE,107,0.0,0.0,90,0.00,,---,0.00,VWS V14.01,2013-06-23 02:03:00,
2013-06-22 22:08:00,72.0,68.9,30.19,ESE,107,0.0,0.0,90,0.00,,---,0.00,VWS V14.01,2013-06-23 02:08:00,
2013-06-22 22:13:00,71.8,68.7,30.19,ESE,107,0.0,0.0,90,0.00,,---,0.00,VWS V14.01,2013-06-23 02:13:00,
2013-06-22 22:18:00,71.6,68.5,30.19,ESE,107,0.0,0.0,90,0.00,,---,0.00,VWS V14.01,2013-06-23 02:18:00,
2013-06-22 22:23:00,71.5,68.4,30.19,ESE,107,0.0,0.0,90,0.00,,---,0.00,VWS V14.01,2013-06-23 02:23:00,
2013-06-22 22:28:00,71.3,68.2,30.19,ESE,107,0.0,0.0,90,0.00,,---,0.00,VWS V14.01,2013-06-23 02:28:00,
2013-06-22 22:33:00,71.3,68.2,30.19,ESE,107,0.0,0.0,90,0.00,,---,0.00,VWS V14.01,2013-06-23 02:33:00,
2013-06-22 22:38:00,71.2,68.1,30.20,ESE,107,0.0,0.0,90,0.00,,---,0.00,VWS V14.01,2013-06-23 02:38:00,
2013-06-22 22:44:00,71.1,68.0,30.20,ESE,107,0.0,0.0,90,0.00,,---,0.00,VWS V14.01,2013-06-23 02:44:00,
2013-06-22 22:49:00,71.0,68.2,30.20,ESE,107,0.0,0.0,91,0.00,,---,0.00,VWS V14.01,2013-06-23 02:49:00,
2013-06-22 22:54:00,70.8,68.1,30.20,ESE,107,0.0,0.0,91,0.00,,---,0.00,VWS V14.01,2013-06-23 02:54:00,
2013-06-22 22:59:00,70.6,67.8,30.20,ESE,107,0.0,0.0,91,0.00,,---,0.00,VWS V14.01,2013-06-23 02:59:00,
2013-06-22 23:04:00,70.4,68.0,30.20,ESE,107,0.0,0.0,92,0.00,,---,0.00,VWS V14.01,2013-06-23 03:04:00,
2013-06-22 23:09:00,70.4,68.0,30.20,ESE,107,0.0,0.0,92,0.00,,---,0.00,VWS V14.01,2013-06-23 03:09:00,
2013-06-22 23:14:00,70.6,68.5,30.20,ESE,107,0.0,0.0,93,0.00,,---,0.00,VWS V14.01,2013-06-23 03:14:00,
2013-06-22 23:20:00,70.4,68.0,30.20,ESE,107,0.0,0.0,92,0.00,,---,0.00,VWS V14.01,2013-06-23 03:20:00,
2013-06-22 23:25:00,70.4,68.3,30.20,ESE,107,0.0,0.0,93,0.00,,---,0.00,VWS V14.01,2013-06-23 03:25:00,
2013-06-22 23:30:00,70.6,68.5,30.20,ESE,107,0.0,0.0,93,0.00,,---,0.00,VWS V14.01,2013-06-23 03:30:00,
2013-06-22 23:35:00,70.6,68.5,30.20,ESE,107,0.0,0.0,93,0.00,,---,0.00,VWS V14.01,2013-06-23 03:35:00,
2013-06-22 23:40:00,70.6,68.5,30.20,ESE,107,0.0,0.0,93,0.00,,---,0.00,VWS V14.01,2013-06-23 03:40:00,
2013-06-22 23:45:00,70.4,68.0,30.20,ESE,107,0.0,0.0,92,0.00,,---,0.00,VWS V14.01,2013-06-23 03:45:00,
2013-06-22 23:50:00,70.3,67.9,30.20,ESE,107,0.0,0.0,92,0.00,,---,0.00,VWS V14.01,2013-06-23 03:50:00,
2013-06-22 23:55:00,70.4,68.3,30.20,ESE,107,0.0,0.0,93,0.00,,---,0.00,VWS V14.01,2013-06-23 03:55:00,